Visibility
15.0 15.0 15.0 15.0 15.0 15.0 15.0 15.0 15.0 14.2 14.5 15.0 15.0 15.0 15.0 15.0 15.0 15.0 15.0 15.0 3.2 0.2 15.0 15.0 15.0 15.0 2.1 0.1 0.3 10.9 12.6 9.5 1.6 0.1 0.2 0.1 0.9 0.1 6.0 15.0 15.0 15.0 11.2 5.3 6.2 0.2 0.3 15.0 14.5 0.5 0.1 15.0 15.0 15.0
15.0 15.0 15.0 15.0 15.0 15.0 15.0 15.0 15.0 15.0 15.0 15.0 15.0 15.0 15.0 15.0 11.1 13.1 14.4 15.0 15.0 0.0 3.7 15.0 15.0 15.0 15.0 15.0 15.0 15.0 14.2 0.3 0.4 1.1 9.2 4.4 4.0 15.0 15.0 0.8 15.0 2.0 8.1 0.8 0.1 5.7 15.0 15.0 15.0 14.7 15.0 15.0 15.0 15.0
15.0 15.0 15.0 15.0 15.0 15.0 15.0 15.0 15.0 15.0 15.0 15.0 15.0 15.0 15.0 15.0 15.0 15.0 15.0 15.0 4.6 0.1 13.7 14.5 15.0 15.0 15.0 15.0 15.0 4.2 14.0 15.0 15.0 15.0 14.2 0.2 0.4 12.5 2.5 7.3 15.0 12.1 0.1 2.1 15.0 15.0 15.0 15.0 15.0 15.0 15.0 15.0 15.0 15.0
15.0 15.0 15.0 15.0 15.0 15.0 15.0 15.0 15.0 15.0 15.0 15.0 15.0 15.0 15.0 15.0 15.0 15.0 15.0 15.0 5.6 0.9 0.1 15.0 15.0 15.0 15.0 15.0 15.0 15.0 15.0 15.0 15.0 15.0 0.2 0.1 1.0 15.0 3.2 15.0 15.0 15.0 15.0 15.0 15.0 15.0 15.0 15.0 15.0 15.0 15.0 15.0 15.0 15.0
15.0 15.0 15.0 15.0 15.0 15.0 15.0 15.0 15.0 15.0 15.0 15.0 15.0 15.0 15.0 15.0 15.0 11.1 15.0 15.0 15.0 0.6 3.1 10.4 15.0 15.0 15.0 15.0 15.0 15.0 15.0 15.0 6.8 0.1 0.1 0.2 7.8 0.6 1.0 9.5 15.0 15.0 15.0 15.0 15.0 15.0 15.0 15.0 15.0 15.0 15.0 15.0 15.0 15.0
15.0 15.0 15.0 15.0 15.0 15.0 15.0 15.0 15.0 15.0 15.0 15.0 15.0 15.0 15.0 15.0 15.0 15.0 15.0 15.0 15.0 15.0 0.1 1.4 15.0 15.0 15.0 15.0 15.0 15.0 15.0 14.1 0.5 0.1 0.2 1.1 15.0 0.2 0.1 1.0 15.0 15.0 15.0 15.0 15.0 15.0 15.0 15.0 15.0 15.0 15.0 15.0 15.0 15.0
15.0 15.0 15.0 15.0 15.0 15.0 15.0 15.0 14.6 15.0 15.0 15.0 15.0 15.0 15.0 8.2 15.0 15.0 15.0 15.0 15.0 1.6 0.3 2.8 11.4 15.0 15.0 15.0 14.9 11.5 15.0 13.0 10.8 0.6 0.2 9.4 4.7 0.0 0.1 2.1 15.0 15.0 15.0 15.0 15.0 15.0 15.0 15.0 15.0 15.0 15.0 15.0 15.0 15.0
15.0 15.0 15.0 15.0 15.0 15.0 15.0 15.0 15.0 15.0 15.0 15.0 15.0 15.0 15.0 11.5 10.8 6.5 15.0 15.0 15.0 0.1 0.0 1.8 11.5 15.0 15.0 13.6 15.0 11.1 0.1 0.2 0.1 1.6 0.0 0.2 7.8 0.3 0.2 15.0 15.0 15.0 15.0 15.0 14.7 15.0 15.0 15.0 15.0 15.0 15.0 15.0 15.0 15.0
15.0 15.0 15.0 15.0 15.0 15.0 15.0 15.0 15.0 15.0 15.0 11.6 15.0 15.0 15.0 14.1 1.6 15.0 15.0 15.0 15.0 14.9 1.7 0.5 1.8 8.3 15.0 11.3 0.3 0.2 0.0 0.1 0.1 0.1 3.1 6.6 1.3 2.3 15.0 15.0 14.9 15.0 12.4 14.5 15.0 3.7 3.8 15.0 15.0 15.0 15.0 15.0 15.0 15.0
15.0 15.0 15.0 15.0 15.0 15.0 15.0 15.0 15.0 15.0 15.0 13.0 14.8 10.4 5.6 15.0 15.0 15.0 1.7 0.0 0.0 0.1 0.1 0.6 15.0 0.7 15.0 15.0 6.9 1.3 13.5 0.6 0.5 15.0 2.4 0.1 14.9 15.0 15.0 0.0 1.5 4.0 0.1 14.9 15.0 15.0 15.0 15.0 15.0 15.0 15.0 15.0 15.0 15.0
15.0 9.7 15.0 15.0 15.0 15.0 15.0 15.0 15.0 15.0 15.0 15.0 15.0 4.6 15.0 15.0 6.3 0.2 0.3 0.3 0.5 0.1 0.5 11.3 15.0 15.0 15.0 15.0 15.0 15.0 15.0 15.0 0.2 15.0 11.1 0.5 6.8 0.1 0.6 0.3 0.2 4.9 10.8 15.0 15.0 15.0 15.0 15.0 15.0 15.0 15.0 15.0 15.0 15.0
15.0 12.4 14.6 15.0 15.0 15.0 15.0 15.0 15.0 15.0 15.0 0.1 0.1 8.7 6.7 0.8 0.2 0.3 4.0 9.9 0.6 14.6 15.0 3.5 6.7 5.6 0.7 15.0 1.5 12.1 15.0 2.9 0.2 14.1 0.1 1.7 15.0 15.0 15.0 15.0 15.0 15.0 15.0 15.0 15.0 15.0 15.0 15.0 15.0 15.0 13.1 15.0 15.0 15.0
15.0 15.0 14.9 15.0 15.0 15.0 15.0 15.0 15.0 14.4 15.0 15.0 0.4 0.1 0.8 7.4 0.1 0.5 6.4 7.9 4.0 15.0 15.0 8.2 0.0 0.1 2.5 0.5 0.1 0.1 0.2 0.2 2.7 0.5 6.2 14.7 14.2 15.0 15.0 15.0 15.0 15.0 15.0 15.0 15.0 15.0 15.0 15.0 15.0 15.0 15.0 15.0 15.0 15.0
15.0 15.0 10.8 15.0 15.0 15.0 15.0 15.0 0.7 15.0 0.0 0.1 0.3 0.4 1.3 1.7 5.8 15.0 15.0 15.0 15.0 15.0 15.0 11.9 0.1 0.6 0.4 0.1 0.1 0.1 14.8 14.4 1.4 14.1 15.0 2.8 15.0 15.0 15.0 15.0 15.0 15.0 15.0 15.0 15.0 15.0 15.0 15.0 15.0 15.0 15.0 15.0 14.9 14.8
15.0 15.0 15.0 14.4 15.0 15.0 15.0 15.0 15.0 10.4 0.0 0.2 0.5 0.8 1.3 15.0 15.0 15.0 15.0 15.0 15.0 15.0 15.0 13.8 15.0 15.0 6.0 0.2 15.0 3.6 6.8 3.6 15.0 15.0 15.0 11.3 15.0 15.0 15.0 15.0 15.0 15.0 15.0 15.0 15.0 15.0 15.0 15.0 15.0 14.5 15.0 15.0 15.0 15.0
15.0 15.0 15.0 15.0 15.0 15.0 15.0 15.0 13.5 0.1 0.0 1.4 0.7 0.4 15.0 15.0 15.0 15.0 15.0 15.0 15.0 15.0 11.7 15.0 15.0 7.7 11.6 15.0 15.0 13.4 14.2 15.0 15.0 4.1 9.6 14.6 15.0 15.0 15.0 15.0 15.0 15.0 15.0 15.0 15.0 15.0 15.0 15.0 11.7 9.2 15.0 15.0 15.0 15.0
15.0 15.0 10.8 15.0 15.0 15.0 14.7 15.0 0.4 0.0 0.1 2.0 0.2 15.0 15.0 15.0 15.0 15.0 15.0 15.0 15.0 15.0 15.0 9.4 0.2 13.7 15.0 4.9 15.0 15.0 15.0 15.0 6.7 15.0 10.6 15.0 15.0 15.0 15.0 15.0 15.0 15.0 15.0 15.0 15.0 15.0 15.0 15.0 15.0 15.0 15.0 15.0 15.0 15.0
15.0 15.0 12.5 1.7 7.6 15.0 15.0 15.0 15.0 3.0 0.2 0.4 0.5 15.0 15.0 15.0 15.0 15.0 15.0 15.0 15.0 15.0 15.0 15.0 12.0 15.0 8.9 14.5 15.0 15.0 7.7 5.4 14.9 15.0 4.8 14.4 14.4 15.0 15.0 15.0 15.0 15.0 15.0 15.0 13.7 15.0 15.0 1.1 1.2 15.0 8.8 14.6 14.4 15.0
15.0 15.0 15.0 15.0 9.7 15.0 15.0 15.0 9.2 4.1 15.0 15.0 15.0 15.0 15.0 15.0 15.0 15.0 15.0 15.0 15.0 15.0 15.0 8.2 1.9 5.0 15.0 15.0 15.0 11.9 9.2 13.0 11.1 15.0 15.0 15.0 15.0 15.0 15.0 15.0 15.0 15.0 15.0 10.8 0.7 8.4 15.0 0.5 0.2 2.4 1.9 1.0 0.8 9.0
15.0 15.0 15.0 0.0 0.0 0.8 15.0 15.0 15.0 8.9 13.0 15.0 15.0 15.0 15.0 15.0 15.0 15.0 15.0 15.0 15.0 1.0 6.7 15.0 14.1 15.0 15.0 15.0 15.0 12.6 15.0 15.0 15.0 15.0 8.5 6.5 6.0 14.7 15.0 13.9 6.7 1.4 1.1 6.3 15.0 15.0 15.0 11.5 13.3 14.3 1.7 0.3 0.2 1.1
15.0 15.0 0.4 0.0 0.1 1.7 15.0 15.0 15.0 15.0 15.0 15.0 15.0 15.0 15.0 15.0 15.0 15.0 15.0 15.0 10.4 14.9 15.0 15.0 15.0 15.0 15.0 15.0 15.0 15.0 15.0 15.0 15.0 15.0 15.0 4.4 10.5 6.5 6.3 14.9 6.6 14.8 5.4 4.4 4.5 5.5 5.8 0.8 0.6 0.8 0.6 0.8 0.7 0.8
11.6 9.8 0.1 0.2 0.1 1.8 0.3 15.0 15.0 15.0 15.0 15.0 15.0 15.0 15.0 15.0 15.0 15.0 15.0 12.9 13.1 15.0 15.0 15.0 15.0 15.0 15.0 15.0 15.0 15.0 15.0 15.0 15.0 13.9 15.0 14.1 12.4 4.8 4.8 1.9 12.6 4.2 4.5 3.2 2.1 1.1 2.7 1.4 1.2 1.3 0.8 2.9 3.7 0.8
6.1 0.2 0.1 1.3 3.0 0.8 2.7 15.0 9.8 15.0 15.0 15.0 15.0 15.0 14.9 13.4 15.0 15.0 9.4 12.5 9.1 10.2 15.0 12.3 11.0 15.0 8.2 0.9 10.9 15.0 15.0 15.0 5.3 5.0 4.9 4.5 5.1 5.6 1.8 1.6 13.4 5.3 4.1 4.8 7.5 6.7 3.9 6.2 4.8 1.5 3.4 9.3 7.6 8.0
0.5 0.1 0.1 0.1 2.5 12.3 15.0 6.7 15.0 7.4 15.0 15.0 15.0 15.0 15.0 15.0 15.0 3.9 15.0 15.0 15.0 5.7 13.5 15.0 15.0 0.7 0.1 0.5 4.4 4.3 12.3 5.4 4.7 4.2 4.2 8.3 4.3 4.3 2.1 3.7 15.0 15.0 5.7 3.6 11.4 6.1 10.0 5.1 4.8 6.1 3.7 2.8 7.1 6.2
0.0 0.1 0.1 0.1 0.2 0.8 8.5 15.0 15.0 15.0 15.0 15.0 15.0 13.6 2.7 7.6 0.1 0.1 0.3 14.8 4.1 4.1 4.5 10.5 7.7 0.2 0.1 2.0 3.9 4.1 13.4 12.4 12.4 5.0 4.1 4.2 4.3 14.4 14.6 15.0 4.3 4.1 7.7 3.6 2.9 2.9 4.9 14.6 7.2 5.6 5.5 1.4 0.8 4.0
0.1 0.5 4.9 15.0 6.0 6.7 14.9 4.2 14.1 15.0 15.0 1.0 1.8 15.0 5.4 8.3 0.7 0.2 14.6 6.4 3.8 4.1 3.7 7.4 8.5 3.2 4.1 4.2 8.4 4.6 10.6 4.3 15.0 11.4 4.1 7.9 15.0 15.0 4.1 4.1 4.1 15.0 6.7 1.6 0.9 2.3 3.2 4.4 3.2 4.2 5.7 12.9 2.0 0.3
0.1 1.0 8.3 15.0 15.0 15.0 15.0 14.9 15.0 15.0 15.0 13.7 15.0 15.0 6.3 15.0 15.0 15.0 5.7 2.8 4.5 4.1 10.5 12.9 12.9 15.0 6.5 4.2 3.3 4.5 10.7 15.0 14.3 15.0 15.0 7.1 4.7 15.0 15.0 5.0 4.0 3.7 3.3 4.1 3.6 1.6 0.6 1.0 1.6 2.3 4.0 7.7 7.8 0.6
4.5 15.0 15.0 15.0 15.0 15.0 15.0 15.0 13.1 6.5 14.3 15.0 2.3 1.4 0.3 7.7 15.0 15.0 4.1 4.1 4.1 5.4 6.4 5.4 13.5 7.8 4.6 12.3 5.2 9.4 6.8 2.8 6.7 6.4 3.4 2.3 4.0 4.6 9.1 6.4 6.4 4.0 4.9 4.5 3.7 2.6 1.5 1.2 1.6 3.6 3.8 2.7 4.0 7.8
3.0 15.0 15.0 15.0 15.0 15.0 15.0 2.2 3.4 15.0 15.0 15.0 15.0 13.6 0.1 1.5 2.0 3.7 4.1 4.1 4.2 15.0 5.6 3.5 0.6 1.1 0.5 1.5 5.9 15.0 7.9 2.8 5.0 1.4 2.2 3.3 1.6 9.4 5.7 4.2 5.5 15.0 7.8 6.6 5.3 4.1 5.3 4.8 8.8 5.5 7.9 7.6 14.5 8.8
15.0 15.0 15.0 15.0 15.0 15.0 15.0 15.0 15.0 10.7 5.5 11.0 12.4 0.1 0.1 3.4 1.0 1.1 5.8 15.0 15.0 9.0 7.4 11.1 8.8 15.0 15.0 15.0 10.1 14.6 4.7 5.8 15.0 14.8 7.3 4.3 10.5 8.5 3.3 3.4 4.3 13.6 5.2 3.1 4.1 9.9 2.4 12.6 9.7 10.3 15.0 15.0 15.0 15.0
15.0 15.0 8.7 15.0 15.0 15.0 15.0 8.1 4.1 4.4 2.5 2.7 0.9 0.2 6.5 3.0 1.9 3.3 10.9 15.0 6.2 11.2 11.6 4.1 4.1 15.0 15.0 15.0 15.0 14.8 7.2 6.6 3.7 4.0 7.6 4.4 4.1 3.7 3.6 4.1 4.1 2.3 1.9 3.9 9.1 4.3 5.2 7.4 4.9 10.2 10.5 15.0 15.0 11.1
15.0 15.0 15.0 15.0 15.0 8.8 2.9 0.3 0.7 3.6 1.8 0.1 0.1 1.2 2.2 3.9 3.4 2.8 1.7 4.1 4.1 4.1 4.4 13.5 14.7 9.8 5.3 6.9 14.8 15.0 15.0 7.0 13.4 5.2 12.7 4.1 3.8 4.1 5.7 5.9 2.2 2.9 7.2 14.4 14.6 8.6 6.1 4.1 4.1 3.8 3.5 4.5 5.3 6.2
5.3 1.3 1.6 2.0 1.8 0.7 0.1 0.1 0.3 0.5 0.1 0.1 1.6 3.7 12.8 14.4 15.0 13.2 0.6 0.4 4.6 15.0 15.0 10.9 4.1 5.6 15.0 15.0 15.0 15.0 15.0 13.0 2.7 0.3 1.0 3.1 2.9 4.1 8.6 4.2 6.3 10.9 15.0 13.1 14.9 11.2 7.9 11.2 4.1 3.6 3.3 3.7 4.0 4.4